{"data":{"norad_id":63106,"intl_designator":"2025-039C","name":"STARLINK-11584 [DTC]","alt_names":[],"object_type":"PAYLOAD","status":"ACTIVE","operator":null,"country":"US","launch_date":"2025-02-27","launch_site_code":"AFETR","launch_vehicle":null,"mission":null,"orbit_class":"UNKNOWN","rcs_meters":null,"size_class":null,"mass_kg":null,"dimensions":null,"purposes":["comms"],"wikipedia_slug":null,"has_3d_model":false,"image_url":null,"decayed_at":null,"tle_current":{"epoch":"2026-09-21T19:04:07.371264Z","epoch_age_seconds":50475,"freshness":"FRESH","line1":"1 63106U 25039C   26264.79452976  .00180270  00000+0  13614-2 0  9998","line2":"2 63106  42.9999 135.1526 0002646 252.1554 107.9025 15.71128758 90452","mean_motion":15.71128758,"eccentricity":0.0002646,"inclination_deg":42.9999,"raan_deg":135.1526,"arg_perigee_deg":252.1554,"mean_anomaly_deg":107.9025,"bstar":0.0013614,"rev_number":9045,"period_min":91.653850307793,"perigee_km":353.88809827448,"apogee_km":357.45162886668,"semimajor_km":6733.8068635706,"source":"CELESTRAK","updated_at":"2026-09-22T09:00:49.762572Z"}}}